Theta_e
314 314 314 314 313 314 319 321 323 321 319 323 323 323 324 325 324 324 325 324 324 323 324 327 326 324 328 316 318 318 324 327 327 326 325 323 324 323 323 327 327 328 330 335 335
313 313 312 313 313 312 317 320 321 322 321 320 323 322 323 324 324 324 324 324 323 322 323 326 329 325 325 319 319 322 326 327 323 320 320 323 324 323 325 326 328 328 332 336 336
312 312 312 312 312 313 314 319 320 320 320 320 322 321 322 323 324 323 324 323 323 321 321 322 328 329 330 327 322 322 323 326 320 319 318 321 323 322 324 325 325 327 333 335 336
311 311 312 312 313 314 312 317 319 319 320 320 321 321 320 322 327 322 323 323 322 321 321 321 327 327 326 328 320 321 322 325 320 317 318 319 318 322 322 322 320 323 332 333 332
311 310 311 312 312 312 311 314 318 319 320 319 321 320 319 322 322 320 319 323 322 322 322 321 324 327 325 325 325 323 322 320 316 316 316 317 318 317 317 319 319 326 331 332 332
311 309 308 310 312 313 313 313 317 319 320 319 320 319 319 323 320 321 320 324 323 323 323 321 322 325 327 325 326 326 324 320 316 317 317 320 320 316 318 318 319 327 328 332 332
311 309 307 311 310 312 313 314 317 319 318 318 319 319 319 321 320 320 320 323 323 323 323 321 320 323 326 328 324 325 326 322 316 317 322 322 327 326 318 320 321 324 327 329 332
311 309 308 310 310 312 311 315 318 318 317 314 318 319 320 319 320 320 319 322 323 323 323 321 320 321 322 321 322 321 321 324 320 319 321 324 328 327 322 319 319 320 323 328 331
310 310 308 309 310 310 311 315 317 317 315 315 316 317 319 318 319 320 319 322 323 323 323 320 320 321 321 324 323 324 328 324 324 320 321 323 325 324 324 317 318 318 319 325 328
310 309 308 309 309 310 312 313 314 316 316 316 316 318 316 318 319 320 321 322 321 322 320 320 320 323 325 325 330 328 328 327 324 323 322 321 322 322 323 317 316 317 316 320 326
310 309 309 309 309 309 312 313 313 314 314 316 317 316 317 317 319 319 320 321 320 321 324 322 324 325 324 326 326 325 326 328 325 323 324 323 323 322 322 322 321 319 316 316 320
309 308 308 308 308 309 312 313 312 312 315 314 314 315 316 317 319 319 319 321 322 324 323 324 324 321 321 326 327 328 329 327 325 320 324 324 325 324 323 323 323 324 322 316 316
308 308 308 307 307 310 312 312 312 312 313 314 315 315 316 316 319 320 319 320 322 323 324 324 321 320 321 323 329 328 329 329 327 320 320 322 325 324 324 323 323 323 323 321 317
308 307 308 307 310 311 311 311 312 313 314 313 315 315 315 316 318 317 318 319 320 325 323 323 319 321 322 322 328 331 327 328 325 326 331 322 331 326 326 325 324 324 323 324 322
308 307 308 308 307 310 310 311 312 311 313 311 315 313 314 317 317 318 317 319 323 321 324 324 320 321 322 322 325 326 326 327 326 327 325 326 328 326 324 326 326 325 324 323 323
307 308 308 307 307 309 310 311 311 311 309 313 314 316 318 316 317 318 318 318 319 322 321 322 319 320 321 320 322 320 321 320 320 324 330 328 327 328 326 325 323 323 322 321 323
308 308 307 307 308 308 309 310 310 310 309 311 316 316 316 316 317 319 321 322 321 323 325 323 321 319 320 323 321 323 326 328 330 329 331 325 327 327 323 322 322 321 320 319 319
308 307 307 307 307 308 309 308 308 307 309 310 312 315 315 316 315 315 318 321 319 320 323 323 324 321 320 323 323 324 325 324 327 326 322 319 323 324 323 321 319 319 317 318 315
307 306 306 307 308 308 307 305 304 306 307 310 311 311 317 317 318 317 316 313 320 320 322 325 325 321 321 320 321 324 327 321 319 307 319 320 319 318 317 316 315 314 313 316 316
306 305 305 306 307 307 306 306 305 306 309 309 311 312 317 317 317 318 318 315 315 320 319 319 322 318 318 319 320 321 319 324 321 322 323 320 320 320 317 315 315 315 315 312 312
303 304 304 306 305 306 306 305 306 306 307 309 310 314 312 316 317 317 319 317 314 319 319 319 319 316 318 320 321 321 323 321 321 322 324 323 319 317 314 309 310 309 308 308 308
303 303 303 303 304 304 304 304 303 306 306 305 305 306 310 312 316 319 319 318 316 317 322 320 319 318 320 312 315 319 322 321 322 322 320 319 319 310 306 307 307 307 308 309 309
300 302 303 302 303 302 304 304 303 302 303 307 306 306 308 310 314 317 317 316 317 320 321 319 319 317 317 317 315 320 319 320 320 317 320 320 318 309 307 309 308 307 309 309 309
303 302 301 302 303 302 302 304 304 304 305 306 306 306 306 307 307 313 318 317 318 319 317 316 317 318 321 320 318 321 321 320 321 319 319 319 318 313 310 310 307 307 307 313 312
305 301 298 301 301 304 302 303 303 304 305 306 306 305 306 307 308 310 318 319 318 318 317 316 317 316 315 318 318 318 320 320 321 320 320 317 318 316 311 311 312 312 313 312 311
302 301 299 300 301 302 304 302 303 303 307 306 307 306 306 308 309 310 318 319 320 314 316 315 316 313 313 317 319 319 319 320 320 319 319 318 317 315 314 314 313 314 312 312 312
298 300 300 302 300 302 302 304 304 305 306 306 306 306 307 306 307 307 312 316 316 317 316 316 311 314 317 317 317 321 319 320 319 319 319 320 318 314 314 315 315 314 312 311 310
Wind_Speed
26 25 24 24 21 23 19 21 20 20 22 20 19 17 17 14 11 9 11 5 10 8 1 4 2 5 5 2 1 7 3 4 9 5 5 5 4 4 2 7 1 3 7 15 28
29 27 26 24 23 23 23 20 22 21 21 22 20 18 18 14 11 16 10 15 10 11 3 5 4 5 3 3 1 1 4 6 6 7 7 6 2 7 3 5 3 6 9 24 25
31 28 27 28 24 22 25 21 22 21 22 21 21 21 18 13 8 9 23 18 15 11 13 9 4 3 3 4 5 6 7 5 6 6 8 4 2 4 3 5 6 10 10 16 16
32 30 28 26 25 23 23 23 23 23 22 22 22 22 18 14 7 5 20 25 21 12 7 7 8 4 4 6 7 3 13 8 1 2 2 3 7 2 5 0 3 4 18 18 16
33 30 28 26 26 26 24 24 24 24 23 22 23 22 19 7 9 3 2 19 21 16 14 9 11 5 5 7 4 12 12 2 5 4 6 1 1 4 7 4 6 9 17 15 15
34 30 29 28 26 24 24 25 23 25 24 24 23 24 14 16 10 8 3 16 16 18 17 15 9 9 6 6 8 4 13 5 7 8 3 3 2 6 3 4 7 10 9 12 15
37 32 30 28 27 25 23 24 24 24 22 22 24 26 12 16 10 17 9 17 19 20 13 15 18 7 3 7 7 12 5 11 7 6 5 4 7 6 4 4 4 9 9 9 14
38 34 31 29 27 25 22 24 24 24 22 21 21 20 6 23 9 18 14 14 18 15 14 12 10 4 2 8 4 5 7 9 10 9 8 10 10 16 10 3 6 8 9 10 11
41 36 33 30 27 25 22 24 23 18 19 20 15 10 7 8 20 23 21 17 19 14 12 3 3 3 1 4 5 7 6 12 8 10 4 9 7 14 12 6 5 7 6 10 10
43 38 35 31 28 25 24 26 22 19 16 14 8 6 6 12 17 19 22 22 13 15 6 4 4 7 5 8 14 7 9 8 14 8 10 11 13 9 5 7 8 7 7 6 10
44 40 36 33 29 26 26 20 9 6 12 10 9 3 7 11 19 16 20 21 14 13 9 10 7 17 17 12 10 11 8 15 6 8 8 12 16 12 12 8 8 8 8 8 7
44 39 35 33 29 27 32 11 19 6 7 12 8 15 4 14 10 16 29 11 10 15 16 8 18 17 13 14 12 11 8 11 8 5 2 8 14 14 12 9 12 14 10 10 8
44 40 36 33 29 29 30 24 24 14 5 13 16 12 4 9 6 16 22 15 9 21 21 16 14 17 16 15 15 15 10 6 7 4 2 5 9 13 12 13 13 14 13 10 10
44 39 36 33 24 25 24 25 28 9 2 6 12 9 14 6 10 13 27 15 8 11 24 16 13 22 17 18 14 17 9 6 5 4 4 6 6 8 9 17 18 17 15 15 16
41 39 39 40 19 18 23 24 18 7 5 9 12 9 17 12 9 12 24 12 14 19 10 15 24 24 24 21 17 4 13 11 5 2 2 3 3 4 9 14 15 15 21 20 18
42 41 40 33 19 25 28 25 12 5 8 4 9 15 16 17 8 6 14 14 4 10 26 15 6 16 18 16 12 8 7 7 4 0 6 10 7 5 9 13 8 9 10 10 16
44 43 39 28 15 31 34 14 7 9 4 6 6 14 23 16 19 10 21 22 14 9 11 7 14 14 23 18 8 9 9 3 6 5 11 8 10 13 11 10 7 8 10 9 8
45 41 29 19 29 33 25 9 6 7 6 3 3 6 20 18 21 21 6 21 20 15 10 10 11 17 12 18 9 21 18 4 8 5 5 1 7 5 19 19 10 9 8 8 5
46 30 23 27 33 33 11 12 8 5 8 9 8 1 16 19 5 20 20 4 17 22 10 13 5 9 14 16 14 9 12 5 4 1 2 5 5 7 9 8 7 8 8 7 7
25 19 14 25 28 23 9 8 6 3 4 3 7 9 7 22 14 24 22 19 4 19 12 9 5 4 1 8 6 10 7 4 2 5 4 5 5 5 5 8 6 3 5 7 5
25 5 16 24 21 4 7 7 3 3 7 5 5 3 9 7 21 15 11 10 31 16 18 13 5 4 5 6 14 6 12 6 5 3 4 2 4 5 5 4 7 6 5 5 4
3 4 20 27 5 2 10 15 8 11 7 4 4 4 3 5 11 22 22 27 30 33 29 12 6 8 11 5 2 8 12 8 6 5 2 4 5 2 9 7 7 8 7 4 3
4 5 17 17 7 6 5 15 14 10 11 8 6 10 3 3 6 22 23 17 33 28 23 11 6 7 5 3 2 7 12 18 7 2 7 5 5 4 6 5 5 8 5 5 5
4 4 2 4 4 10 10 9 17 10 5 5 2 5 3 8 11 13 21 13 31 22 20 15 6 11 18 23 11 12 18 18 17 4 5 13 3 3 8 8 7 7 7 4 1
2 3 4 9 12 9 15 8 17 10 11 12 5 13 8 8 13 20 17 9 24 21 17 8 5 8 1 15 14 22 22 19 18 24 10 23 19 13 7 8 6 6 4 4 4
4 4 2 5 9 14 12 15 17 19 11 9 12 10 13 13 14 14 17 14 12 11 17 5 3 5 4 14 19 19 20 20 21 27 24 18 10 7 8 3 4 1 6 8 6
4 2 6 9 13 13 14 11 16 16 12 11 12 13 17 22 17 20 30 16 15 16 15 14 6 8 4 8 10 8 23 26 25 19 29 18 21 4 4 3 2 2 7 6 7
Wind_Direction
222 224 230 233 235 232 225 221 219 217 218 211 208 206 203 199 197 202 221 210 195 233 158 173 139 108 79 357 311 321 260 246 252 262 89 125 128 330 299 115 27 79 45 121 155
221 224 228 228 230 232 227 220 218 215 216 212 207 205 205 198 191 220 220 215 209 192 133 221 166 89 103 179 327 223 257 245 0 15 25 117 252 144 155 135 146 99 79 118 149
214 217 223 228 229 229 228 222 220 215 213 213 206 202 201 188 238 240 226 218 217 212 201 276 134 100 98 323 200 206 250 301 55 19 6 23 202 114 190 191 196 170 146 140 163
213 215 215 220 225 228 231 223 218 214 209 206 201 193 191 179 226 159 220 217 210 199 173 228 178 148 152 190 249 280 237 230 270 45 26 20 335 121 209 280 55 180 152 152 177
216 221 213 217 220 226 229 221 216 210 206 200 195 187 171 211 231 81 94 204 201 188 191 192 209 167 173 196 220 274 272 193 127 188 97 172 323 353 306 211 112 109 145 156 179
219 226 221 218 219 219 220 221 213 206 202 198 191 184 180 228 211 233 48 181 189 191 198 194 231 198 210 208 162 276 229 207 168 203 128 101 7 10 38 327 111 132 158 159 176
216 223 221 219 220 220 218 215 209 201 195 196 194 187 212 215 212 218 177 183 189 191 193 207 227 236 307 224 203 206 266 266 190 239 197 104 299 254 247 58 210 171 171 170 179
208 215 218 219 219 220 219 208 202 202 201 197 191 186 230 211 201 191 175 174 190 196 209 206 232 315 351 325 169 196 224 240 192 206 226 137 244 251 258 157 243 206 186 172 179
204 208 213 215 215 215 212 203 191 187 184 186 179 195 237 186 209 205 184 167 174 189 199 273 191 195 40 240 188 194 209 224 223 187 140 188 235 233 232 166 249 279 218 175 175
202 204 208 209 207 207 202 191 180 162 154 148 145 154 207 205 182 205 185 172 152 164 131 166 182 194 211 216 205 182 215 219 217 215 201 205 232 250 242 171 202 236 277 230 176
198 201 202 202 201 199 187 159 152 194 199 189 163 263 115 157 180 189 201 167 166 162 170 190 183 208 202 223 246 228 212 218 207 226 186 224 238 227 238 239 234 232 223 252 225
193 197 198 195 195 190 171 180 183 144 169 227 215 202 164 187 175 209 188 174 189 187 178 174 217 204 213 208 242 250 229 217 234 55 236 246 244 244 247 244 248 255 243 213 217
189 192 193 189 187 184 183 180 174 148 180 193 216 212 175 169 200 195 193 192 200 197 194 197 214 193 207 223 205 230 214 217 233 122 316 1 275 262 254 250 237 238 236 232 208
184 187 186 182 170 178 186 176 176 140 180 210 188 221 192 158 218 176 206 183 197 232 194 216 189 185 202 222 198 215 182 216 116 135 223 168 279 238 241 239 239 239 239 239 222
178 180 177 176 162 175 176 173 139 165 199 190 169 180 169 183 117 203 184 214 192 200 216 197 184 188 199 203 197 255 195 206 167 177 56 210 265 259 228 246 242 229 228 228 226
176 174 174 174 169 168 160 163 150 147 225 153 136 176 166 195 197 131 186 222 246 222 205 211 187 186 198 196 183 136 87 60 63 330 241 211 202 223 235 239 233 245 231 214 217
170 172 171 170 168 162 150 146 165 201 185 175 179 179 181 184 184 180 188 195 194 202 191 176 199 181 178 185 142 147 152 145 201 217 247 170 204 241 273 269 251 290 288 268 219
166 165 160 162 155 154 154 152 195 197 179 101 95 215 199 178 207 198 231 199 196 182 178 180 189 163 176 188 170 182 176 158 198 204 210 273 232 243 218 246 260 252 265 259 288
154 146 141 151 153 152 152 179 199 172 187 155 120 26 208 201 167 194 197 217 194 178 186 172 150 185 181 155 155 175 203 195 100 122 61 198 255 301 230 250 244 255 250 258 262
142 131 133 151 153 162 159 188 203 188 58 143 188 184 230 195 183 194 189 203 232 212 184 172 118 231 88 128 183 184 140 177 258 159 224 240 226 227 195 227 240 221 223 229 238
129 103 154 146 147 150 190 205 162 186 134 140 184 291 224 241 201 196 200 196 199 215 232 149 130 205 162 195 164 178 184 210 174 201 186 150 246 210 147 136 119 89 66 51 50
94 108 157 148 130 170 203 202 211 166 163 126 156 148 246 213 237 200 207 197 187 190 214 175 161 156 189 359 305 203 182 197 188 209 194 125 272 61 137 136 136 142 142 137 92
93 94 160 167 170 196 205 208 217 213 202 174 206 195 217 245 280 207 209 223 186 183 174 183 156 131 119 140 343 195 195 202 204 86 202 156 232 208 146 142 162 145 171 147 150
105 120 118 211 259 184 185 212 208 211 192 194 253 192 216 267 280 280 213 193 190 193 150 201 160 183 196 197 145 192 193 200 198 191 194 220 238 190 176 184 177 193 207 189 183
67 145 165 180 206 207 182 197 201 199 201 182 203 214 203 252 282 281 222 171 190 187 159 217 148 176 305 166 173 191 183 192 201 225 198 235 219 213 187 171 173 181 219 310 322
117 132 138 158 174 206 206 205 210 203 169 206 224 203 199 220 225 288 188 180 185 156 164 180 155 105 329 169 174 184 194 195 206 220 222 239 257 180 216 140 145 3 312 306 310
63 34 133 144 184 190 216 210 214 207 197 214 201 226 216 228 234 249 254 175 163 172 165 174 137 148 177 137 126 178 196 195 213 215 218 221 230 143 139 164 317 303 278 286 301